Avoca, PA

10:42 AM EST on February 22, 2018 (GMT -0500)
Wilkes-Barre-Scranton International

Weather History for KAVP - November, 2012

Change the Weather History Date:

Friday, November 9, 2012

  Actual Average Record
Temperature  
Mean Temperature 40 °F 44 °F  
Max Temperature 49 °F 52 °F 72 °F (1975)
Min Temperature 31 °F 35 °F 18 °F (1971)
Degree Days  
Heating Degree Days 25 21  
Month to date heating degree days 241 181  
Since 1 July heating degree days 699 784  
Cooling Degree Days 0 0  
Month to date cooling degree days 0 0  
Year to date cooling degree days 864 580  
Moisture  
Dew Point 27 °F    
Average Humidity 63    
Maximum Humidity 76    
Minimum Humidity 49    
Precipitation  
Precipitation T in 0.10 in 1.52 in (1913)
Month to date precipitation 0.04 0.92  
Year to date precipitation 33.12 33.36  
Sea Level Pressure  
Sea Level Pressure 30.13 in    
Wind  
Wind Speed 8 mph (NNW)    
Max Wind Speed 18 mph    
Max Gust Speed 23 mph    
Visibility 10 miles    
Events Snow    
T = Trace of Precipitation, MM = Missing Value Source: NWS Daily Summary

Daily Weather History Graph

Daily Weather History Graph

Search for Another Location

Airport or City:

Trip Planner

Search our weather history database for the weather conditions in past years. The results will help you decide how hot, cold, wet, or windy it might be!

Date:

Astronomy

Nov. 09, 2012 Rise Set
Actual Time 6:44 AM EST 4:48 PM EST
Civil Twilight 6:15 AM EST 5:17 PM EST
Nautical Twilight 5:42 AM EST 5:50 PM EST
Astronomical Twilight 5:09 AM EST 6:23 PM EST
Moon 1:37 AM EST (11/9) 2:03 PM EST (11/9)
Length of Visible Light 11h 02m
Length of Day
10h 04m
Waning Crescent, 23% of the Moon is Illuminated
Nov 9
Waning Crescent
Nov 13
New
Nov 20
First Quarter
Nov 28
Full
Dec 6
Last Quarter

Hourly Weather History & Observations

Time (EST) Temp. Windchill Dew Point Humidity Pressure Visibility Wind Dir Wind Speed Gust Speed Precip Events Conditions
12:54 AM 32.0 °F 24.8 °F 21.0 °F 64% 30.03 in 10.0 mi NNW 8.1 mph - N/A   Unknown
1:54 AM 32.0 °F 22.5 °F 19.0 °F 59% 30.02 in 10.0 mi NNW 12.7 mph - N/A   Clear
2:54 AM 33.1 °F 23.0 °F 19.0 °F 56% 30.03 in 10.0 mi NNW 15.0 mph 20.7 mph N/A   Clear
3:54 AM 33.1 °F 23.4 °F 21.0 °F 61% 30.06 in 10.0 mi NNW 13.8 mph - N/A   Clear
4:54 AM 33.1 °F 25.5 °F 21.9 °F 64% 30.08 in 10.0 mi NNW 9.2 mph - N/A   Clear
5:54 AM 33.1 °F 26.1 °F 23.0 °F 66% 30.09 in 10.0 mi NW 8.1 mph - N/A   Clear
6:54 AM 34.0 °F 24.2 °F 24.1 °F 67% 30.10 in 10.0 mi NNW 15.0 mph - 0.00 in   Clear
7:54 AM 35.1 °F 27.4 °F 25.0 °F 67% 30.14 in 9.0 mi NW 10.4 mph 20.7 mph 0.00 in Snow Light Snow
8:54 AM 37.9 °F 32.7 °F 27.0 °F 65% 30.14 in 10.0 mi Variable 6.9 mph - 0.00 in   Clear
9:54 AM 41.0 °F 35.8 °F 27.0 °F 57% 30.15 in 10.0 mi NNW 8.1 mph - 0.00 in   Clear
10:54 AM 45.0 °F 39.7 °F 28.0 °F 52% 30.17 in 10.0 mi NW 10.4 mph - N/A   Overcast
11:54 AM 46.0 °F 41.9 °F 28.9 °F 51% 30.15 in - NNW 8.1 mph - N/A   Unknown
12:54 PM 46.0 °F 40.2 °F 28.9 °F 51% 30.15 in 10.0 mi WNW 12.7 mph - N/A   Overcast
1:54 PM 46.9 °F - 30.0 °F 52% 30.14 in 10.0 mi NW 11.5 mph - N/A   Overcast
2:54 PM 46.0 °F 41.4 °F 30.0 °F 54% 30.14 in 10.0 mi North 9.2 mph - N/A   Overcast
3:54 PM 46.0 °F 42.5 °F 30.9 °F 56% 30.14 in 10.0 mi NW 6.9 mph - N/A   Clear
4:54 PM 44.1 °F 41.5 °F 30.9 °F 60% 30.15 in 10.0 mi NW 4.6 mph - N/A   Clear
5:54 PM 42.1 °F 40.2 °F 30.9 °F 65% 30.17 in 10.0 mi North 3.5 mph - N/A   Clear
6:54 PM 39.9 °F - 32.0 °F 73% 30.18 in 10.0 mi Calm Calm - N/A   Clear
7:54 PM 37.9 °F 35.5 °F 30.9 °F 76% 30.18 in 10.0 mi East 3.5 mph - N/A   Clear
8:54 PM 37.0 °F - 30.0 °F 76% 30.19 in 10.0 mi Calm Calm - N/A   Clear
9:54 PM 34.0 °F 31.0 °F 28.9 °F 82% 30.20 in 10.0 mi ESE 3.5 mph - N/A   Clear
10:54 PM 35.1 °F 32.2 °F 28.9 °F 78% 30.21 in 10.0 mi ESE 3.5 mph - N/A   Clear
11:54 PM 34.0 °F - 28.9 °F 82% 30.22 in 10.0 mi Calm Calm - N/A   Clear